GW5814 Weather Reports


Display with metric or nautical units.
time (UTC)temp
F
wind
direction
speed
MPH
gust
MPH
rain 1hr
in
rain 24hr
in
rain mn
in
humidity
%
barometer
mb
20260506093020 58 210 0.0 5.0 0.00 0.00 0.00 83 1008.9
20260506092508 58 209 1.0 4.0 0.00 0.00 0.00 83 1008.9
20260506092010 59 210 1.0 4.0 0.00 0.00 0.00 83 1008.9
20260506091528 59 166 1.0 4.0 0.00 0.00 0.00 83 1008.9
20260506091010 59 183 1.0 2.0 0.00 0.00 0.00 82 1009.0
20260506090510 59 147 0.0 3.0 0.00 0.00 0.00 82 1009.0
20260506090009 59 203 0.0 3.0 0.00 0.00 0.00 82 1009.0
20260506085504 59 179 1.0 2.0 0.00 0.00 0.00 82 1009.0
20260506085004 59 194 0.0 4.0 0.00 0.00 0.00 81 1009.1
20260506084519 59 170 1.0 4.0 0.00 0.00 0.00 81 1009.2
20260506084009 59 181 2.0 4.0 0.00 0.00 0.00 81 1009.3
20260506083507 59 196 1.0 3.0 0.00 0.00 0.00 81 1009.3
20260506083020 59 232 1.0 3.0 0.00 0.00 0.00 81 1009.2
20260506082506 59 202 1.0 4.0 0.00 0.00 0.00 81 1009.2
20260506082012 59 201 1.0 3.0 0.00 0.00 0.00 80 1009.3
20260506081524 60 202 0.0 4.0 0.00 0.00 0.00 80 1009.2
20260506081016 60 200 1.0 4.0 0.00 0.00 0.00 80 1009.2
20260506080511 60 206 0.0 2.0 0.00 0.00 0.00 79 1009.2
20260506073507 62 170 1.0 3.0 0.00 0.00 0.00 75 1009.2
20260506073018 62 227 1.0 5.0 0.00 0.00 0.00 74 1009.2
20260506072513 63 196 2.0 6.0 0.00 0.00 0.00 73 1009.2
20260506072012 63 191 1.0 6.0 0.00 0.00 0.00 72 1009.3
20260506071523 63 232 1.0 5.0 0.00 0.00 0.00 72 1009.3
20260506071010 64 191 1.0 5.0 0.00 0.00 0.00 71 1009.4
20260506070509 64 213 2.0 5.0 0.00 0.00 0.00 71 1009.4
20260506062514 66 219 1.0 2.0 0.00 0.00 0.00 67 1009.2
20260506062010 66 209 1.0 2.0 0.00 0.00 0.00 67 1009.2
20260506061520 66 202 1.0 2.0 0.00 0.00 0.00 66 1009.2
20260506061011 66 213 0.0 2.0 0.00 0.00 0.00 66 1009.2
20260506060508 66 196 0.0 2.0 0.00 0.00 0.00 65 1009.1
20260506051012 68 205 0.0 9.0 0.00 0.00 0.00 61 1009.7
20260506050514 68 197 1.0 9.0 0.00 0.00 0.00 61 1009.7
20260506045009 68 144 1.0 3.0 0.00 0.00 0.00 61 1009.7
20260506044510 68 218 1.0 3.0 0.00 0.00 0.00 61 1009.7
20260506044006 68 211 0.0 5.0 0.00 0.00 0.00 61 1009.7
20260506043505 68 223 0.0 5.0 0.00 0.00 0.00 60 1009.7
20260506043010 68 204 0.0 5.0 0.00 0.00 0.00 60 1009.7
20260506042507 68 214 1.0 5.0 0.00 0.00 0.00 60 1009.7
20260506042010 68 198 1.0 4.0 0.00 0.00 0.00 60 1009.6
20260506041526 68 189 1.0 4.0 0.00 0.00 0.00 60 1009.6
20260506041009 68 203 1.0 4.0 0.00 0.00 0.00 60 1009.6
20260506040517 68 229 1.0 7.0 0.00 0.00 0.00 60 1009.5
20260506040020 68 210 1.0 7.0 0.00 0.00 0.00 59 1009.5
20260506035508 68 202 1.0 5.0 0.00 0.00 0.00 59 1009.5
20260506035008 68 196 1.0 5.0 0.00 0.00 0.00 59 1009.5
20260506034526 68 210 1.0 5.0 0.00 0.00 0.00 59 1009.5
20260506034009 68 192 1.0 5.0 0.00 0.00 0.00 59 1009.5
20260506033506 68 218 2.0 6.0 0.00 0.00 0.00 59 1009.5
20260506033010 68 202 1.0 8.0 0.00 0.00 0.00 59 1009.5
20260506032508 68 157 1.0 8.0 0.00 0.00 0.00 59 1009.5
20260506032008 69 267 2.0 7.0 0.00 0.00 0.00 59 1009.4
20260506031516 69 198 1.0 5.0 0.00 0.00 0.00 59 1009.4
20260506031005 69 203 1.0 5.0 0.00 0.00 0.00 59 1009.3
20260506030508 69 232 1.0 4.0 0.00 0.00 0.00 59 1009.3
20260506030023 68 219 1.0 4.0 0.00 0.00 0.00 59 1009.3
20260506025514 68 200 1.0 5.0 0.00 0.00 0.00 60 1009.3
20260506025009 68 197 1.0 5.0 0.00 0.00 0.00 60 1009.4
20260506024522 68 185 0.0 4.0 0.00 0.00 0.00 60 1009.4
20260506024013 67 187 1.0 9.0 0.00 0.00 0.00 61 1009.3
20260506023513 67 180 2.0 9.0 0.00 0.00 0.00 62 1009.4
20260506023025 66 240 1.0 6.0 0.00 0.00 0.00 63 1009.4
20260506022511 66 194 0.0 2.0 0.00 0.00 0.00 63 1009.4
20260506022004 66 200 1.0 4.0 0.00 0.00 0.00 63 1009.4
20260506021513 66 216 1.0 6.0 0.00 0.00 0.00 63 1009.4
20260506021008 66 267 1.0 6.0 0.00 0.00 0.00 63 1009.3
20260506020513 66 187 1.0 5.0 0.00 0.00 0.00 63 1009.4
20260506020018 66 148 2.0 8.0 0.00 0.00 0.00 63 1009.3
20260506015507 66 182 1.0 8.0 0.00 0.00 0.00 63 1009.3
20260506015007 66 137 1.0 7.0 0.00 0.00 0.00 63 1009.3
20260506014529 66 154 2.0 6.0 0.00 0.00 0.00 63 1009.2
20260506014007 66 171 2.0 7.0 0.00 0.00 0.00 63 1009.0
20260506013509 66 189 2.0 8.0 0.00 0.00 0.00 63 1008.9
20260506013028 66 200 2.0 8.0 0.00 0.00 0.00 63 1008.9
20260506012509 67 188 1.0 6.0 0.00 0.00 0.00 62 1008.8
20260506012011 67 250 1.0 9.0 0.00 0.00 0.00 61 1008.9
20260506011526 68 166 1.0 9.0 0.00 0.00 0.00 60 1008.9
20260506011006 69 194 1.0 7.0 0.00 0.00 0.00 58 1008.8
20260506010508 69 171 2.0 12.0 0.00 0.00 0.00 56 1008.7
20260506010023 70 215 3.0 12.0 0.00 0.00 0.00 55 1008.7
20260506005509 70 182 1.0 11.0 0.00 0.00 0.00 54 1008.6
20260506005015 71 182 2.0 11.0 0.00 0.00 0.00 53 1008.5
20260506004534 71 207 1.0 5.0 0.00 0.00 0.00 53 1008.4
20260506004009 72 159 1.0 5.0 0.00 0.00 0.00 51 1008.3
20260506003510 73 174 1.0 4.0 0.00 0.00 0.00 49 1008.2
20260506003024 74 173 1.0 7.0 0.00 0.00 0.00 47 1008.1
20260506002512 75 209 2.0 7.0 0.00 0.00 0.00 44 1008.2
20260506002013 77 206 2.0 7.0 0.00 0.00 0.00 41 1008.2
20260506001528 78 205 3.0 12.0 0.00 0.00 0.00 33 1008.0
20260506001010 78 233 2.0 12.0 0.00 0.00 0.00 32 1007.7
20260506000507 78 192 2.0 10.0 0.00 0.00 0.00 32 1007.8
20260506000035 79 302 3.0 12.0 0.00 0.00 0.00 32 1007.8
20260505235514 79 200 2.0 12.0 0.00 0.00 0.00 31 1007.8
20260505235007 79 191 4.0 11.0 0.00 0.00 0.00 31 1007.6
20260505234520 79 277 5.0 11.0 0.00 0.00 0.00 31 1007.5
20260505234009 79 260 2.0 6.0 0.00 0.00 0.00 31 1007.6
20260505233513 79 192 2.0 11.0 0.00 0.00 0.00 30 1007.6
20260505233022 79 200 5.0 14.0 0.00 0.00 0.00 30 1007.4
20260505232512 80 202 3.0 14.0 0.00 0.00 0.00 30 1007.3
20260505232010 80 197 3.0 10.0 0.00 0.00 0.00 30 1007.3
20260505231527 80 189 3.0 15.0 0.00 0.00 0.00 29 1007.3
20260505231010 80 199 6.0 19.0 0.00 0.00 0.00 29 1007.3
20260505230513 80 198 2.0 19.0 0.00 0.00 0.00 29 1007.1
20260505230033 81 104 4.0 15.0 0.00 0.00 0.00 29 1007.1
20260505225513 81 200 5.0 15.0 0.00 0.00 0.00 29 1007.0
20260505225007 81 234 7.0 17.0 0.00 0.00 0.00 28 1006.9
20260505224522 81 159 5.0 19.0 0.00 0.00 0.00 28 1006.9
20260505224012 81 248 6.0 19.0 0.00 0.00 0.00 28 1006.9
20260505223512 81 224 6.0 19.0 0.00 0.00 0.00 28 1006.9
20260505223028 82 202 8.0 20.0 0.00 0.00 0.00 28 1006.9
20260505222507 82 250 5.0 21.0 0.00 0.00 0.00 29 1006.6
20260505222009 82 232 4.0 20.0 0.00 0.00 0.00 29 1006.7
20260505221522 82 275 5.0 16.0 0.00 0.00 0.00 29 1006.5
20260505221012 82 153 4.0 16.0 0.00 0.00 0.00 29 1006.6
20260505220510 82 292 7.0 14.0 0.00 0.00 0.00 29 1006.6
20260505220036 82 171 8.0 20.0 0.00 0.00 0.00 28 1006.9
20260505215512 82 205 6.0 20.0 0.00 0.00 0.00 28 1006.8
20260505215009 82 313 4.0 20.0 0.00 0.00 0.00 29 1006.6
20260505214547 83 228 4.0 15.0 0.00 0.00 0.00 28 1006.6
20260505214007 83 159 4.0 15.0 0.00 0.00 0.00 28 1006.4
20260505213507 83 297 5.0 12.0 0.00 0.00 0.00 28 1006.3
20260505213030 83 166 4.0 17.0 0.00 0.00 0.00 28 1006.3
20260505212510 83 196 7.0 18.0 0.00 0.00 0.00 28 1006.2
20260505212003 84 242 8.0 18.0 0.00 0.00 0.00 28 1006.2
20260505211505 84 194 4.0 17.0 0.00 0.00 0.00 28 1006.2
20260505211009 84 194 4.0 17.0 0.00 0.00 0.00 28 1006.2
20260505210504 84 248 3.0 11.0 0.00 0.00 0.00 28 1006.3
20260505210007 84 211 3.0 14.0 0.00 0.00 0.00 28 1006.2
20260505205509 84 159 6.0 17.0 0.00 0.00 0.00 27 1006.2
20260505205009 83 243 7.0 16.0 0.00 0.00 0.00 28 1006.1
20260505204516 84 272 4.0 18.0 0.00 0.00 0.00 28 1006.2
20260505204007 83 238 5.0 19.0 0.00 0.00 0.00 28 1006.2
20260505203511 83 211 6.0 19.0 0.00 0.00 0.00 28 1006.1
20260505203015 82 236 7.0 16.0 0.00 0.00 0.00 32 1006.5
20260505202506 80 197 3.0 16.0 0.00 0.00 0.00 33 1006.5
20260505202008 79 162 3.0 7.0 0.00 0.00 0.00 40 1006.6
20260505201527 78 168 1.0 9.0 0.00 0.00 0.00 46 1006.6
20260505201004 77 303 1.0 9.0 0.00 0.00 0.00 48 1006.7
20260505200506 77 146 3.0 11.0 0.00 0.00 0.00 48 1006.7
20260505200008 77 225 3.0 11.0 0.00 0.00 0.00 47 1006.8
20260505195505 77 164 4.0 10.0 0.00 0.00 0.00 46 1006.8
20260505195004 78 150 2.0 8.0 0.00 0.00 0.00 48 1006.8
20260505194510 78 258 3.0 11.0 0.00 0.00 0.00 47 1006.9
20260505194010 77 232 3.0 11.0 0.00 0.00 0.00 48 1007.0
20260505193507 77 147 3.0 12.0 0.00 0.00 0.00 47 1007.0
20260505193034 78 203 5.0 13.0 0.00 0.00 0.00 46 1007.1
20260505192508 78 168 4.0 11.0 0.00 0.00 0.00 46 1007.2
20260505192006 79 232 4.0 14.0 0.00 0.00 0.00 44 1007.2
20260505191522 79 189 2.0 14.0 0.00 0.00 0.00 44 1007.3
20260505191009 80 180 3.0 15.0 0.00 0.00 0.00 44 1007.3
20260505190507 80 123 6.0 15.0 0.00 0.00 0.00 40 1007.2
20260505190008 79 177 5.0 10.0 0.00 0.00 0.00 42 1007.2
20260505185510 78 171 4.0 10.0 0.00 0.00 0.00 45 1007.5
20260505185005 78 212 4.0 10.0 0.00 0.00 0.00 46 1007.9
20260505184507 78 105 2.0 10.0 0.00 0.00 0.00 46 1007.8
20260505184007 78 211 3.0 11.0 0.00 0.00 0.00 46 1007.9
20260505183507 78 195 4.0 13.0 0.00 0.00 0.00 45 1007.9
20260505183017 79 142 3.0 13.0 0.00 0.00 0.00 44 1007.9
20260505182506 78 158 2.0 8.0 0.00 0.00 0.00 44 1007.9
20260505182012 79 212 4.0 8.0 0.00 0.00 0.00 44 1008.0
20260505181521 78 217 3.0 8.0 0.00 0.00 0.00 44 1008.0
20260505181011 78 130 3.0 8.0 0.00 0.00 0.00 44 1008.0
20260505180507 78 147 2.0 8.0 0.00 0.00 0.00 45 1008.0
20260505180032 78 210 3.0 7.0 0.00 0.00 0.00 44 1008.0
20260505175510 79 184 3.0 11.0 0.00 0.00 0.00 44 1008.0
20260505175009 79 169 3.0 11.0 0.00 0.00 0.00 43 1008.0
20260505174506 79 210 3.0 7.0 0.00 0.00 0.00 43 1008.0
20260505174007 79 172 3.0 7.0 0.00 0.00 0.00 44 1008.1
20260505173504 78 246 2.0 11.0 0.00 0.00 0.00 45 1008.2
20260505173008 78 157 2.0 11.0 0.00 0.00 0.00 44 1008.4
20260505172506 78 216 2.0 11.0 0.00 0.00 0.00 44 1008.4
20260505172011 78 117 2.0 9.0 0.00 0.00 0.00 44 1008.5
20260505171526 78 327 1.0 9.0 0.00 0.00 0.00 45 1008.6
20260505171005 77 152 2.0 8.0 0.00 0.00 0.00 45 1008.5
20260505170509 77 195 2.0 11.0 0.00 0.00 0.00 46 1008.6
20260505170018 77 134 2.0 11.0 0.00 0.00 0.00 45 1008.6
20260505165509 77 165 2.0 13.0 0.00 0.00 0.00 46 1008.6
20260505165010 76 219 3.0 13.0 0.00 0.00 0.00 45 1008.9
20260505164533 77 93 3.0 10.0 0.00 0.00 0.00 46 1009.0
20260505164008 77 129 3.0 10.0 0.00 0.00 0.00 45 1009.0
20260505163504 77 151 2.0 9.0 0.00 0.00 0.00 46 1009.1
20260505163006 76 137 1.0 8.0 0.00 0.00 0.00 48 1009.1
20260505162503 76 217 2.0 8.0 0.00 0.00 0.00 46 1009.3
20260505162004 76 215 2.0 9.0 0.00 0.00 0.00 47 1009.3
20260505161514 76 169 2.0 14.0 0.00 0.00 0.00 46 1009.2
20260505161006 77 89 3.0 14.0 0.00 0.00 0.00 46 1009.3
20260505160508 78 171 1.0 6.0 0.00 0.00 0.00 45 1009.3
20260505153029 76 250 4.0 13.0 0.00 0.00 0.00 45 1009.7
20260505152506 76 146 2.0 13.0 0.00 0.00 0.00 44 1009.7
20260505152015 76 190 2.0 10.0 0.00 0.00 0.00 46 1009.7
20260505151510 76 153 2.0 10.0 0.00 0.00 0.00 46 1009.8
20260505151008 76 201 3.0 8.0 0.00 0.00 0.00 45 1009.9
20260505150513 75 153 1.0 12.0 0.00 0.00 0.00 48 1009.9
20260505140512 70 252 4.0 11.0 0.00 0.00 0.00 56 1010.3
20260505125004 63 165 1.0 6.0 0.00 0.00 0.00 69 1010.1
20260505124517 63 206 1.0 4.0 0.00 0.00 0.00 69 1010.0
20260505124011 63 145 2.0 5.0 0.00 0.00 0.00 68 1010.1
20260505123511 63 169 2.0 6.0 0.00 0.00 0.00 68 1010.3
20260505123029 62 180 0.0 6.0 0.00 0.00 0.00 70 1010.4
20260505122508 62 78 0.0 6.0 0.00 0.00 0.00 70 1010.5
20260505122009 61 200 2.0 5.0 0.00 0.00 0.00 70 1010.4
20260505121532 61 182 2.0 4.0 0.00 0.00 0.00 72 1010.4
20260505121007 60 202 1.0 4.0 0.00 0.00 0.00 72 1010.2
20260505120514 60 176 0.0 4.0 0.00 0.00 0.00 77 1010.2
20260505120037 59 186 1.0 4.0 0.00 0.00 0.00 77 1010.2
20260505115512 58 220 1.0 3.0 0.00 0.00 0.00 78 1010.1
20260505115008 58 198 1.0 3.0 0.00 0.00 0.00 78 1010.3
20260505114514 58 292 0.0 3.0 0.00 0.00 0.00 78 1010.2
20260505114010 58 5 1.0 3.0 0.00 0.00 0.00 76 1010.3
20260505113506 59 303 0.0 2.0 0.00 0.00 0.00 74 1010.3
20260505113018 59 157 0.0 3.0 0.00 0.00 0.00 72 1010.4
20260505112507 59 183 2.0 3.0 0.00 0.00 0.00 69 1010.5
20260505112007 59 218 0.0 2.0 0.00 0.00 0.00 69 1010.8
20260505111524 59 286 1.0 2.0 0.00 0.00 0.00 69 1010.7
20260505111007 59 187 0.0 3.0 0.00 0.00 0.00 70 1010.7
20260505110507 59 186 1.0 3.0 0.00 0.00 0.00 69 1010.6
20260505102006 56 223 0.0 2.0 0.00 0.00 0.00 75 1010.3
20260505101521 56 223 0.0 2.0 0.00 0.00 0.00 75 1010.1
20260505101009 55 189 1.0 2.0 0.00 0.00 0.00 75 1010.0
20260505100508 55 281 0.0 2.0 0.00 0.00 0.00 75 1010.0
20260505100030 56 281 1.0 2.0 0.00 0.00 0.00 75 1009.9
20260505095507 56 217 0.0 2.0 0.00 0.00 0.00 74 1009.8
20260505095010 56 211 0.0 2.0 0.00 0.00 0.00 74 1009.7
20260505094529 56 215 1.0 5.0 0.00 0.00 0.00 74 1009.6
20260505094010 56 215 1.0 5.0 0.00 0.00 0.00 74 1009.5
20260505093511 56 196 0.0 2.0 0.00 0.00 0.00 74 1009.6